Temperature
10 10 10 10 10 9 8 8 9 9 8 9 8 7 8 8 8 7 7 7 6 6 5 5 5 4 4 4 4 3 3 3 3 3 2 2 2 2 1 1 1 1 0 0
10 10 9 8 8 8 8 8 7 8 8 8 7 7 7 7 7 6 6 6 5 5 4 4 4 3 3 3 3 3 3 2 2 2 2 1 1 1 1 0 0 -0 -0 -1
8 8 9 8 9 8 8 7 7 7 7 6 6 6 7 7 6 5 5 5 4 4 3 3 3 3 3 2 2 2 2 2 1 1 1 0 -0 -0 -0 -0 -1 -1 -1 -1
7 8 9 10 9 8 8 7 6 7 6 6 6 7 7 6 5 5 4 4 3 3 3 3 3 2 2 2 2 1 1 1 0 -0 -0 -1 -1 -1 -1 -1 -2 -2 -2 -2
6 7 7 8 8 7 7 7 6 6 6 6 6 5 6 6 5 4 4 3 3 3 2 2 2 2 1 1 1 1 0 -0 -0 -1 -1 -1 -2 -2 -2 -2 -2 -3 -3 -3
5 6 7 9 9 8 8 7 6 6 5 5 4 3 4 5 4 4 3 3 3 2 2 2 2 1 1 1 0 -0 -1 -1 -1 -2 -2 -2 -2 -2 -3 -3 -3 -3 -3 -3
4 5 6 7 8 8 8 7 6 6 5 5 3 3 4 4 3 3 3 3 2 2 2 2 1 0 0 -0 -0 -1 -1 -2 -2 -2 -3 -3 -3 -3 -3 -4 -4 -4 -4 -4
4 5 6 7 7 6 6 6 6 6 5 5 4 4 3 3 3 3 2 2 2 1 1 1 1 -0 -1 -1 -1 -2 -2 -2 -2 -3 -3 -3 -4 -4 -4 -4 -4 -4 -4 -4
5 7 6 7 7 7 7 6 6 5 4 4 3 3 3 2 2 2 2 2 1 1 1 1 0 -1 -1 -1 -2 -2 -2 -3 -3 -3 -3 -4 -4 -4 -4 -5 -5 -5 -5 -5
4 4 5 6 6 6 6 5 5 4 4 3 3 2 2 2 2 1 1 1 1 0 -0 -0 -0 -1 -1 -2 -2 -3 -3 -3 -4 -4 -4 -4 -5 -5 -5 -5 -5 -6 -6 -6
4 4 4 5 5 5 5 4 4 3 3 2 2 2 1 1 1 1 1 1 0 -0 -1 -1 -1 -1 -2 -2 -3 -4 -4 -4 -4 -5 -5 -5 -5 -5 -5 -6 -6 -6 -6 -6
4 4 3 5 5 4 4 4 3 3 2 2 2 1 1 1 1 1 0 0 -0 -1 -1 -1 -2 -2 -2 -3 -4 -4 -5 -5 -5 -5 -5 -6 -6 -6 -5 -6 -6 -6 -6 -6
5 5 5 5 4 4 3 3 2 2 2 2 1 1 1 1 0 0 -0 -1 -1 -1 -2 -2 -2 -2 -3 -4 -4 -5 -5 -5 -6 -6 -6 -6 -6 -6 -6 -6 -6 -6 -6 -6
4 4 4 3 3 3 2 2 2 2 2 1 1 1 0 0 -0 -0 -1 -1 -2 -2 -2 -2 -3 -3 -3 -4 -5 -5 -5 -6 -6 -6 -6 -6 -6 -6 -7 -7 -6 -6 -6 -6
3 3 3 3 2 2 2 2 2 2 1 1 1 1 0 -0 -1 -1 -1 -2 -2 -2 -2 -3 -3 -3 -4 -5 -5 -6 -6 -6 -6 -6 -6 -6 -6 -7 -7 -7 -7 -7 -7 -6
2 2 2 2 2 2 2 1 1 1 1 0 0 -0 -0 -1 -1 -1 -2 -2 -3 -3 -3 -3 -4 -4 -4 -5 -6 -6 -6 -6 -6 -7 -7 -7 -7 -7 -7 -7 -7 -7 -7 -7
2 2 1 1 1 1 1 1 0 0 -0 -0 -0 -1 -1 -1 -2 -2 -2 -3 -3 -3 -3 -4 -4 -5 -5 -5 -6 -6 -6 -6 -7 -7 -7 -7 -7 -7 -7 -7 -7 -7 -7 -7
1 1 1 1 1 0 0 0 -0 -0 -1 -1 -1 -2 -2 -2 -3 -3 -3 -3 -3 -3 -3 -4 -5 -5 -5 -6 -6 -6 -7 -7 -7 -7 -7 -7 -7 -7 -7 -7 -7 -7 -7 -7
1 1 1 0 0 -0 -0 -0 -1 -1 -1 -1 -2 -2 -2 -3 -3 -3 -4 -4 -4 -4 -4 -4 -5 -6 -6 -6 -6 -7 -7 -7 -7 -7 -7 -8 -8 -8 -8 -8 -8 -8 -8 -8
0 0 0 0 -0 -0 -1 -1 -1 -1 -2 -2 -2 -3 -3 -3 -3 -4 -4 -4 -4 -5 -5 -5 -6 -6 -6 -6 -7 -7 -7 -7 -7 -8 -8 -8 -8 -8 -8 -8 -8 -8 -8 -8
-0 -0 -0 -1 -1 -1 -1 -1 -2 -2 -2 -2 -3 -3 -3 -4 -4 -4 -5 -5 -4 -5 -5 -6 -6 -6 -7 -7 -7 -7 -8 -8 -8 -8 -8 -8 -9 -8 -8 -8 -8 -8 -8 -8
-1 -1 -1 -1 -1 -1 -2 -2 -2 -2 -3 -3 -3 -4 -4 -4 -4 -5 -5 -5 -5 -6 -6 -6 -6 -7 -7 -7 -8 -8 -8 -8 -8 -9 -9 -9 -9 -9 -8 -8 -8 -8 -8 -8
-1 -1 -2 -2 -2 -2 -2 -2 -3 -3 -3 -3 -4 -4 -5 -5 -5 -5 -6 -5 -6 -6 -6 -6 -7 -7 -8 -8 -8 -8 -8 -9 -9 -9 -9 -9 -9 -9 -9 -8 -8 -8 -9 -9
-2 -2 -2 -2 -2 -3 -3 -3 -3 -3 -4 -4 -4 -5 -5 -5 -5 -5 -6 -6 -6 -6 -7 -7 -7 -8 -8 -8 -8 -9 -9 -9 -9 -9 -9 -9 -9 -9 -9 -9 -9 -9 -9 -9
-2 -2 -2 -3 -3 -3 -3 -4 -4 -4 -4 -4 -5 -5 -5 -6 -6 -6 -6 -6 -7 -7 -7 -7 -7 -8 -8 -9 -9 -9 -9 -9 -10 -10 -10 -9 -9 -9 -9 -9 -9 -9 -9 -9
-2 -3 -3 -3 -3 -4 -4 -4 -5 -5 -5 -6 -6 -6 -6 -6 -6 -7 -7 -7 -7 -7 -8 -8 -8 -8 -9 -9 -9 -9 -10 -10 -10 -10 -10 -10 -9 -9 -9 -9 -9 -9 -9 -9
-3 -3 -3 -4 -4 -4 -5 -5 -5 -6 -6 -6 -7 -6 -7 -7 -7 -7 -7 -7 -8 -8 -8 -8 -9 -9 -9 -10 -10 -10 -10 -10 -10 -10 -10 -10 -10 -9 -9 -9 -9 -9 -9 -9
Wind_Speed
7 5 4 7 9 9 11 10 11 10 9 8 4 4 4 3 2 3 5 6 7 8 8 9 9 10 10 10 10 10 11 12 13 13 13 13 13 14 13 13 14 14 14 14
4 2 3 8 12 12 11 9 10 9 9 2 1 1 1 2 2 3 6 7 8 9 10 10 10 11 11 11 11 11 12 13 14 14 14 14 14 14 14 14 14 14 14 15
4 4 6 9 10 8 6 6 7 8 6 2 1 2 3 3 2 4 6 8 9 10 10 11 11 10 11 11 12 12 13 14 14 14 15 15 15 15 15 15 14 14 14 14
2 2 8 8 1 5 5 3 4 4 3 3 2 4 5 2 1 4 7 8 9 9 10 10 10 11 11 12 12 13 14 14 14 14 15 16 15 15 15 14 14 15 15 15
4 4 9 8 3 5 6 4 4 5 3 1 2 4 3 1 1 4 6 7 8 9 10 10 12 12 12 13 13 13 15 15 15 15 16 17 17 17 16 15 16 15 15 15
5 5 8 6 1 2 4 4 4 5 4 2 1 2 4 3 5 6 7 7 8 9 10 11 13 12 13 14 14 15 16 16 16 15 16 18 18 18 16 15 16 16 16 14
6 6 9 6 2 3 4 5 5 5 4 3 4 5 5 6 7 7 8 10 10 11 11 12 13 12 14 15 16 16 16 16 16 15 15 16 17 15 15 15 16 16 17 15
6 6 9 2 5 6 5 3 4 3 3 3 4 5 6 7 8 9 10 11 11 11 13 12 12 12 15 16 16 16 16 16 16 16 15 15 16 16 15 15 16 16 15 15
9 8 2 1 3 2 4 3 2 2 2 2 3 5 7 7 8 10 11 11 11 12 14 14 12 11 15 17 16 17 17 17 17 17 15 14 15 16 15 13 13 14 13 14
4 5 3 1 2 2 2 2 1 1 1 2 4 6 8 9 9 10 11 12 12 13 15 16 14 12 13 16 15 16 18 17 16 16 16 14 12 12 13 13 13 14 14 13
4 3 0 2 2 2 2 2 1 1 1 3 5 7 8 9 11 11 12 12 11 13 15 17 16 15 14 14 14 16 17 16 16 14 15 15 13 12 13 12 14 16 13 13
5 4 5 4 3 3 2 1 1 2 3 4 5 8 9 10 11 11 12 12 13 14 15 17 16 17 15 14 13 15 16 15 14 14 13 13 14 14 17 18 23 24 23 21
3 1 3 1 2 2 2 1 2 3 5 7 7 8 9 10 10 11 12 13 14 15 16 17 17 17 16 14 14 14 16 16 14 13 13 13 13 14 15 16 19 21 22 23
1 2 2 1 1 1 1 2 3 4 6 7 8 9 10 11 11 13 14 14 15 15 16 16 16 17 16 14 14 15 15 18 17 13 13 13 13 13 13 14 15 12 15 21
3 2 2 1 0 1 1 2 4 6 7 8 8 10 11 12 14 15 15 14 14 15 16 16 16 17 15 14 15 16 15 13 13 13 13 13 12 12 12 13 13 13 12 14
1 3 2 1 1 2 3 4 6 8 9 10 11 12 13 13 14 15 15 14 14 17 17 16 17 17 15 15 15 14 13 21 20 14 13 13 12 12 12 12 13 12 12 12
3 1 1 2 3 5 5 7 8 9 10 12 13 13 13 14 15 15 15 13 13 15 15 16 17 16 15 14 14 13 13 15 21 16 12 12 12 12 12 12 12 12 12 13
2 3 3 4 5 7 8 8 9 10 11 13 13 13 13 14 16 17 16 15 15 15 14 14 14 15 14 14 13 12 12 13 12 13 12 12 12 11 11 12 12 13 12 13
1 3 4 6 7 7 8 10 11 10 11 12 13 14 14 14 15 15 15 15 16 17 14 11 21 17 14 15 18 12 12 13 13 12 12 15 14 11 11 11 12 12 12 11
3 5 6 7 8 8 10 11 11 12 12 12 13 14 15 15 14 14 14 14 12 12 13 16 16 13 12 14 19 12 12 13 13 13 12 11 11 12 11 12 12 11 11 10
6 7 8 9 10 10 11 11 11 13 13 12 13 14 15 15 14 13 13 14 13 12 14 20 14 11 12 15 19 11 11 12 12 12 12 12 12 12 12 12 11 11 10 10
7 8 9 10 11 12 11 10 11 13 14 14 14 13 14 15 14 13 12 11 13 18 15 11 10 16 20 22 11 10 11 12 12 11 11 11 11 12 12 12 11 11 10 9
8 9 10 11 11 12 12 12 12 12 13 14 14 14 14 14 12 12 14 10 10 18 15 11 17 25 27 15 10 11 12 12 12 12 12 11 11 11 12 12 11 10 9 9
9 10 10 10 10 10 13 13 12 11 12 13 13 13 13 12 11 9 10 16 20 22 13 17 25 25 23 11 10 11 11 11 12 12 12 11 11 11 11 11 10 10 9 10
10 10 10 10 10 10 11 12 12 12 12 11 12 12 10 9 11 12 11 12 18 20 12 16 23 23 15 10 11 11 11 12 13 13 11 11 11 11 11 10 10 10 9 9
9 9 9 10 10 10 9 9 10 11 11 12 12 10 9 9 10 11 10 11 13 18 14 11 12 15 11 11 11 12 12 13 13 12 12 12 12 12 11 10 12 10 9 8
9 9 8 9 9 8 8 9 10 11 11 12 14 12 10 10 10 11 12 11 11 11 11 10 10 10 11 11 11 11 11 11 11 11 11 11 11 11 10 11 10 9 8 8
Wind_Direction
245 248 220 232 233 211 206 207 220 240 240 256 252 252 255 262 295 344 341 334 328 323 319 317 316 314 311 308 308 309 308 306 303 300 297 295 293 292 291 288 287 285 284 282
278 293 277 267 254 236 229 224 233 255 266 250 190 146 261 271 293 326 324 322 320 319 318 314 311 310 309 308 308 308 305 303 302 301 299 296 295 294 293 291 290 287 285 283
265 311 339 278 253 216 204 204 195 219 226 168 168 280 274 266 284 315 316 315 315 313 308 306 306 306 307 303 305 305 301 300 300 299 298 297 297 296 294 294 292 290 286 283
234 21 248 247 292 167 169 208 192 171 163 178 234 280 277 235 279 314 312 311 309 307 307 306 304 304 302 302 302 301 300 299 298 298 298 300 299 296 295 294 293 292 290 287
164 235 276 290 240 169 174 228 196 168 180 225 330 341 317 218 341 301 299 298 296 296 297 299 300 300 302 302 302 302 301 300 300 300 302 303 302 301 299 298 296 294 292 290
158 198 244 251 173 154 122 243 206 170 187 209 77 350 277 294 314 306 304 299 298 298 300 300 300 302 304 304 304 303 303 302 302 301 301 301 301 300 299 297 296 297 295 292
183 221 260 255 236 129 179 248 172 173 187 189 202 223 260 298 302 297 297 297 298 299 299 297 299 304 303 302 301 300 301 302 302 300 298 298 298 298 298 299 299 298 295 293
166 200 251 224 136 172 200 140 146 167 189 214 241 271 290 298 298 300 301 299 299 298 298 297 297 299 299 300 301 302 303 303 303 302 301 302 299 300 299 300 301 300 299 299
192 209 252 141 164 149 138 141 163 181 228 254 273 284 292 294 295 296 294 295 295 295 298 298 294 290 294 299 303 305 305 304 305 304 302 299 299 301 304 303 301 301 301 301
232 258 233 184 133 109 108 135 158 194 258 264 270 281 289 292 293 294 294 296 298 299 300 301 300 295 291 296 302 303 304 306 306 306 305 303 300 300 301 302 302 301 302 302
244 267 195 234 207 169 127 108 95 324 274 263 271 281 282 287 289 291 295 296 296 296 297 299 302 301 299 300 303 303 304 305 306 304 303 305 303 298 299 293 294 301 301 301
225 215 192 225 210 169 164 200 241 268 286 282 268 271 280 283 285 289 294 295 297 296 297 300 303 303 303 302 302 303 307 308 307 305 304 305 305 304 299 299 303 304 304 303
219 194 172 166 126 135 164 227 249 256 264 277 279 274 279 283 287 289 293 295 296 298 299 300 302 303 304 304 303 301 302 304 305 303 304 305 305 306 308 309 307 307 308 309
128 106 102 108 157 179 213 259 271 278 277 273 277 282 284 287 290 293 294 295 296 297 298 299 301 302 304 304 303 301 302 303 304 301 302 302 301 302 303 306 310 310 309 310
55 94 155 163 135 311 295 294 302 299 294 291 286 288 291 293 295 295 296 297 297 297 298 300 302 303 305 305 303 303 305 305 302 300 300 300 299 299 299 300 302 304 307 308
73 67 90 91 328 305 306 302 297 293 293 293 295 294 292 290 291 294 296 296 298 300 302 303 301 302 304 305 305 305 305 305 309 305 304 302 301 301 301 301 302 304 305 308
116 77 9 308 295 293 288 282 279 283 288 290 291 293 296 297 298 298 298 296 292 293 294 296 297 300 302 303 304 306 305 306 308 307 303 302 301 300 301 302 303 303 303 305
177 209 225 244 264 279 286 285 283 285 287 287 292 295 296 297 298 299 301 302 301 299 295 291 294 302 303 304 306 304 304 303 304 304 304 304 303 301 301 301 302 303 304 307
265 258 266 271 271 273 277 282 284 284 285 290 292 293 292 292 293 295 299 302 303 304 303 299 307 311 305 306 311 304 303 305 307 306 304 305 307 302 302 302 302 303 305 307
293 289 291 291 288 281 281 284 287 290 290 290 291 294 295 295 296 298 299 296 291 289 295 302 306 303 303 305 309 305 306 308 308 307 307 306 305 304 304 303 303 303 304 304
294 293 293 291 291 288 284 286 291 292 293 292 290 291 292 295 296 296 298 300 298 295 302 307 310 306 307 309 311 309 309 308 308 307 307 306 305 305 304 303 303 304 304 305
287 288 289 290 290 292 291 289 288 290 292 293 291 290 292 296 298 296 286 285 295 304 310 304 305 309 316 316 313 312 311 309 308 307 306 305 304 304 304 304 303 304 304 304
282 283 285 286 287 289 292 291 288 288 289 290 292 292 291 292 295 297 300 298 300 306 312 303 309 315 319 321 315 313 311 309 308 308 306 305 303 301 301 302 303 303 303 301
282 283 283 285 288 290 291 291 289 289 286 287 286 284 286 293 294 285 283 298 308 308 307 306 313 317 321 320 312 310 309 308 307 306 305 305 303 302 302 302 302 302 301 300
279 281 282 286 288 286 285 290 294 294 292 291 289 286 282 280 285 294 296 298 304 309 307 309 314 317 319 309 309 309 308 306 307 310 308 308 305 303 302 302 301 302 301 300
278 280 279 276 275 280 284 288 291 293 296 298 299 296 293 290 288 291 296 298 298 305 308 306 307 310 310 307 307 308 307 307 309 309 307 307 304 303 302 303 302 301 300 299
281 280 282 284 281 275 276 281 286 291 294 296 298 300 299 299 299 299 300 302 303 304 305 305 305 306 307 307 307 308 307 307 308 308 308 306 305 304 303 303 302 300 300 300
Height
1523 1521 1522 1522 1521 1522 1525 1524 1525 1518 1516 1511 1512 1512 1511 1511 1511 1510 1509 1507 1505 1502 1499 1495 1491 1487 1483 1478 1473 1468 1462 1456 1450 1445 1439 1432 1426 1420 1415 1409 1403 1398 1392 1387
1521 1520 1522 1521 1515 1515 1516 1516 1516 1513 1512 1509 1509 1510 1510 1509 1509 1508 1507 1505 1502 1499 1495 1491 1487 1482 1477 1472 1467 1461 1455 1449 1443 1436 1430 1424 1418 1412 1405 1399 1394 1388 1382 1377
1526 1524 1520 1518 1506 1506 1508 1507 1509 1510 1509 1508 1509 1508 1508 1507 1507 1506 1504 1502 1499 1495 1491 1487 1482 1477 1471 1466 1460 1454 1448 1442 1435 1429 1422 1415 1409 1403 1396 1390 1384 1378 1372 1367
1528 1523 1524 1505 1500 1500 1503 1504 1505 1505 1506 1506 1507 1507 1506 1505 1505 1503 1501 1498 1495 1491 1487 1482 1477 1472 1466 1460 1454 1447 1440 1434 1427 1421 1413 1407 1400 1394 1387 1381 1374 1368 1362 1357
1530 1527 1518 1504 1499 1499 1502 1503 1502 1503 1505 1505 1505 1505 1503 1503 1502 1500 1498 1495 1491 1487 1482 1477 1472 1466 1459 1453 1447 1440 1433 1426 1420 1413 1406 1399 1391 1385 1378 1372 1365 1359 1353 1347
1529 1525 1517 1500 1496 1495 1499 1502 1501 1501 1503 1504 1504 1506 1504 1501 1499 1496 1494 1491 1487 1482 1477 1472 1466 1460 1453 1446 1439 1432 1425 1419 1412 1406 1399 1391 1384 1377 1370 1364 1357 1350 1344 1339
1525 1523 1510 1497 1495 1496 1503 1499 1499 1499 1500 1501 1501 1502 1500 1497 1495 1492 1489 1486 1482 1477 1472 1466 1460 1453 1446 1439 1432 1425 1418 1411 1404 1398 1391 1383 1376 1369 1362 1355 1349 1342 1336 1330
1520 1522 1509 1494 1494 1497 1496 1496 1496 1498 1498 1499 1498 1497 1496 1493 1491 1488 1484 1480 1476 1471 1465 1460 1454 1447 1439 1432 1425 1418 1410 1402 1395 1389 1383 1376 1368 1361 1355 1348 1341 1334 1327 1321
1502 1498 1493 1491 1492 1493 1493 1495 1495 1496 1496 1496 1495 1493 1492 1489 1486 1483 1479 1475 1470 1464 1458 1452 1447 1440 1432 1424 1417 1409 1402 1394 1387 1380 1374 1368 1361 1354 1347 1341 1334 1327 1321 1315
1497 1492 1491 1491 1491 1492 1493 1493 1494 1494 1494 1493 1492 1490 1488 1485 1482 1478 1473 1469 1463 1457 1450 1444 1438 1432 1425 1418 1410 1402 1394 1386 1379 1372 1365 1359 1354 1348 1341 1334 1328 1321 1315 1309
1493 1490 1489 1490 1490 1491 1491 1492 1491 1491 1491 1490 1488 1486 1484 1480 1476 1472 1467 1462 1457 1450 1443 1436 1430 1423 1417 1410 1403 1394 1386 1379 1372 1365 1358 1351 1346 1341 1334 1328 1324 1317 1310 1305
1489 1486 1487 1487 1488 1489 1489 1489 1489 1489 1488 1487 1485 1482 1479 1475 1471 1466 1461 1455 1449 1443 1436 1429 1422 1415 1409 1402 1395 1388 1379 1372 1365 1358 1352 1345 1338 1331 1326 1322 1316 1311 1305 1300
1484 1484 1485 1486 1486 1487 1487 1487 1487 1486 1485 1483 1480 1477 1473 1469 1464 1459 1454 1448 1441 1435 1428 1421 1414 1407 1401 1394 1388 1381 1373 1366 1358 1352 1345 1339 1332 1325 1317 1311 1308 1303 1298 1293
1482 1483 1484 1484 1485 1485 1485 1485 1484 1482 1481 1478 1475 1471 1467 1462 1457 1452 1446 1440 1434 1427 1420 1413 1406 1399 1393 1387 1380 1373 1366 1359 1352 1346 1339 1333 1327 1320 1313 1306 1299 1293 1290 1286
1481 1482 1482 1483 1483 1483 1482 1481 1480 1478 1475 1472 1469 1465 1460 1455 1449 1444 1438 1432 1426 1419 1412 1406 1398 1391 1386 1379 1372 1365 1359 1352 1345 1339 1333 1327 1321 1314 1308 1302 1296 1289 1283 1279
1480 1480 1480 1481 1481 1480 1479 1477 1475 1472 1469 1466 1462 1458 1453 1448 1441 1436 1430 1425 1418 1411 1404 1398 1391 1384 1378 1372 1365 1358 1352 1346 1340 1333 1326 1320 1314 1309 1303 1297 1291 1285 1279 1274
1478 1478 1478 1478 1478 1477 1475 1473 1470 1467 1463 1459 1455 1450 1445 1439 1433 1427 1422 1417 1411 1404 1397 1391 1383 1377 1371 1365 1359 1352 1345 1338 1333 1327 1320 1314 1309 1303 1297 1292 1286 1280 1275 1270
1477 1477 1477 1476 1474 1472 1470 1468 1465 1461 1457 1452 1447 1442 1437 1431 1425 1419 1413 1407 1401 1395 1390 1384 1377 1370 1364 1358 1352 1345 1339 1332 1326 1320 1314 1308 1303 1298 1292 1287 1281 1276 1270 1265
1475 1474 1473 1472 1470 1468 1465 1462 1458 1454 1450 1445 1440 1434 1429 1424 1418 1412 1406 1400 1393 1386 1380 1375 1369 1363 1357 1351 1346 1339 1333 1327 1321 1314 1308 1303 1297 1292 1287 1281 1276 1271 1266 1260
1472 1471 1469 1467 1465 1462 1458 1455 1451 1446 1442 1438 1432 1426 1421 1416 1411 1405 1398 1393 1387 1381 1374 1368 1362 1356 1350 1344 1339 1333 1327 1321 1315 1308 1302 1297 1291 1286 1281 1276 1271 1266 1261 1256
1467 1466 1463 1461 1458 1455 1452 1448 1443 1438 1434 1430 1425 1419 1413 1408 1403 1397 1391 1384 1379 1374 1368 1362 1356 1350 1344 1338 1333 1327 1321 1315 1309 1303 1297 1292 1286 1281 1276 1271 1266 1261 1257 1252
1462 1460 1457 1454 1451 1447 1444 1441 1436 1431 1426 1422 1417 1411 1406 1400 1395 1389 1384 1379 1372 1367 1361 1355 1349 1343 1338 1332 1326 1320 1315 1309 1303 1297 1292 1286 1281 1276 1271 1266 1261 1257 1252 1247
1457 1454 1451 1448 1444 1440 1436 1433 1429 1424 1419 1414 1409 1404 1399 1393 1388 1383 1376 1371 1366 1360 1355 1349 1343 1337 1332 1326 1320 1314 1308 1303 1297 1292 1286 1281 1276 1271 1266 1261 1257 1252 1247 1243
1451 1448 1444 1441 1437 1433 1428 1424 1421 1416 1411 1406 1401 1397 1392 1386 1380 1376 1371 1365 1359 1354 1348 1342 1336 1331 1325 1319 1314 1308 1302 1297 1291 1286 1281 1276 1271 1266 1262 1257 1252 1247 1243 1238
1444 1440 1437 1434 1430 1426 1421 1417 1412 1407 1403 1398 1393 1389 1385 1380 1374 1368 1363 1358 1352 1347 1340 1335 1330 1324 1319 1313 1308 1302 1297 1291 1286 1281 1276 1271 1266 1261 1256 1252 1247 1243 1238 1234
1437 1433 1430 1427 1423 1419 1414 1410 1405 1400 1395 1389 1384 1381 1376 1372 1367 1362 1356 1351 1345 1340 1334 1328 1323 1317 1312 1307 1302 1296 1291 1286 1280 1275 1270 1266 1261 1256 1252 1247 1243 1239 1235 1230
1429 1426 1422 1418 1415 1411 1407 1403 1398 1393 1388 1383 1377 1373 1369 1364 1359 1354 1349 1343 1338 1333 1327 1322 1317 1311 1306 1301 1296 1290 1285 1280 1275 1270 1265 1260 1256 1252 1247 1243 1239 1235 1231 1227